Location: Deuil
(48.9767°N, 2.3272°E)
Time: 23:07:21
(UTC+00:00)

Cosmos 2228 - Pass Details

Date: 03 June 2022
Orbit: 586 x 617 km, 82.5° (Epoch: 03 July)

Event Time Altitude Azimuth Distance (km) Brightness Sun altitude
Rises 01:53:48 0° 344° (NNW) 2,881 7.2 -13.5°
Reaches altitude 10° 01:56:07 10° 338° (NNW) 1,967 6.2 -13.3°
Maximum altitude 02:00:13 42° 268° (W) 868 3.6 -12.9°
Enters shadow 02:02:50 20° 206° (SSW) 1,419 4.3 -12.7°
